Weather in Puerto Suarez

Bolivia     18°59′03″S   57°48′05″W
temp.,
°C
wind,
m/s
gust,
m/s
humid.,
%
clouds,
%
prec.,
mm/h
press.,
hPa
HPBL,
m
8 march, mon
mon823:00+24se11610 0.0 101024
02:00+21e11710 0.0 101023
05:00+21nne11790 0.0 101023
08:00+28ne01630 0.0 1013255
11:00+36s14360 0.0 10122104
14:00+35s34293 0.0 10082674
17:00+32s373731 0.0 1007823
20:00+27sse234734 0.0 100990
9 march, tue
tue923:00+23ese11536 0.0 101124
02:00+22ene12573 0.0 100924
05:00+20ene11700 0.0 100923
08:00+27sse01580 0.0 1012252
11:00+36s13310 0.0 10111557
14:00+36s45220 0.0 10072757
17:00+33sse25340 0.0 1005569
20:00+26sse23430 0.0 100665
10 march, wed
wed1023:00+23e12550 0.0 100830
02:00+22ene12670 0.0 100823
05:00+21e11740 0.0 100823
08:00+27n13580 0.0 1010309
11:00+36nw21340 0.0 10092033
14:00+37sw22277 0.0 10052845
17:00+34ssw123870 0.0 1003177
20:00+27ese124735 0.0 100524
11 march, thu
thu1123:00+26ene26520 0.0 1007142
02:00+23ene11671 0.0 100723
05:00+22ene11710 0.0 100823
08:00+28nne13550 0.0 1010311
11:00+36nnw23330 0.0 10091856
14:00+35nnw123529 0.0 10061815
17:00+33nne124586 0.0 1005405
20:00+30ene125092 0.0 100766
12 march, fri
fri1223:00+28ne385589 0.0 1010349
02:00+24nne117894 0.0 100924
05:00+22nne1187100 0.0 101024
08:00+28n1265100 0.0 1011302
11:00+35n234099 0.0 10111611
14:00+36ne333471 0.0 10082324
17:00+32ne024879 0.0 1006528
20:00+26ene116540 0.1 100824